Probability
3 3 5 9 15 19 20 19 19 17 15 14 9 3 0 0 0 0 0 0 0 0 0 0 0 0 0 0 0 0 0 0 0 0 0 0 0 0 0 0 0 0 0
2 3 4 7 12 17 20 21 21 20 17 14 11 5 1 0 0 0 0 0 0 0 0 0 0 0 0 0 0 0 0 0 0 0 0 0 0 0 0 0 0 0 0
1 2 4 5 9 13 17 20 21 21 19 17 14 10 6 2 1 1 0 0 0 0 0 0 0 0 0 0 0 0 0 0 0 0 0 0 0 0 0 0 0 0 0
1 2 3 5 6 9 13 15 17 19 19 19 19 15 10 6 3 1 0 0 0 0 0 0 0 0 0 0 0 0 0 0 0 0 0 0 0 0 0 0 0 0 0
0 1 2 3 4 6 8 10 12 14 16 18 18 16 12 8 4 1 0 0 0 0 0 0 0 0 0 0 0 0 0 0 0 0 0 0 0 0 0 0 0 0 0
0 0 1 2 1 2 5 7 9 10 12 14 14 13 12 9 6 2 0 0 0 0 0 0 0 0 0 0 0 0 0 0 0 0 0 0 0 0 0 0 0 0 0
0 0 0 0 0 1 3 5 7 7 8 9 10 11 11 10 8 5 2 1 0 0 0 0 0 0 0 0 0 0 0 0 0 0 0 0 0 0 0 0 0 0 0
0 0 0 0 0 0 1 3 5 6 6 7 8 8 8 8 7 6 4 2 0 0 0 0 0 0 0 0 0 0 0 0 0 0 0 0 0 0 0 0 0 0 0
0 0 0 0 0 0 0 1 3 4 4 5 5 5 4 5 4 4 3 1 0 0 0 0 0 0 0 0 0 0 0 0 0 0 0 0 0 0 0 0 0 0 0
0 0 0 0 0 0 0 0 1 1 1 2 2 1 1 2 2 1 1 0 0 0 0 0 0 0 0 0 0 0 0 0 0 0 0 0 0 0 0 0 0 0 0
0 0 0 0 0 0 0 0 0 0 0 0 0 0 0 1 1 0 0 0 0 0 0 0 0 0 0 0 0 0 0 0 0 0 0 0 0 0 0 0 0 0 0
0 0 0 0 0 0 0 0 0 0 0 0 0 0 0 0 0 0 0 0 0 0 0 0 0 0 0 0 0 0 0 0 0 0 0 0 0 0 0 0 0 0 0
0 0 0 0 0 0 0 0 0 0 0 0 0 0 0 0 0 0 0 0 0 0 0 0 0 0 0 0 0 0 0 0 0 0 0 0 0 0 0 0 0 0 0
0 0 0 0 0 0 0 0 0 0 0 0 0 0 0 0 0 0 0 0 0 0 0 0 0 0 0 0 0 0 0 0 0 0 0 0 0 0 0 0 0 0 0
0 0 0 0 0 0 0 0 0 0 0 0 0 0 0 0 0 0 0 0 0 0 0 0 0 0 0 0 0 0 0 0 0 0 0 0 0 0 0 0 0 0 0
0 0 0 0 0 0 0 0 0 0 0 0 0 0 0 0 0 0 0 0 0 0 0 0 0 0 0 0 0 0 0 0 0 0 0 0 0 0 0 0 0 0 0
0 0 0 0 0 0 0 0 0 0 0 0 0 0 0 0 0 0 0 0 0 0 0 0 0 0 0 0 0 0 0 0 0 0 0 0 0 0 0 0 0 0 0
0 0 0 0 0 0 0 0 0 0 0 0 0 0 0 0 0 0 0 0 0 0 0 0 0 0 0 0 0 0 0 0 0 0 0 0 0 0 0 0 0 0 0
0 0 0 0 0 0 0 0 0 0 0 0 0 0 0 0 0 0 0 0 0 0 0 0 0 0 0 0 0 0 0 0 0 0 0 0 0 0 0 0 0 0 0
0 0 0 0 0 0 0 0 0 0 0 0 0 0 0 0 0 0 0 0 0 0 0 0 0 0 0 0 0 0 0 0 0 0 0 0 0 0 0 0 0 0 0
0 0 0 0 0 0 0 0 0 0 0 0 0 0 0 0 0 0 0 0 0 0 0 0 0 0 0 0 0 0 0 0 0 0 0 0 0 0 0 0 0 0 0
0 0 0 0 0 0 0 0 0 0 0 0 0 0 0 0 0 0 0 0 0 0 0 0 0 0 0 0 0 0 0 0 0 0 0 0 0 0 0 0 0 0 0
0 0 0 0 0 0 0 0 0 0 0 0 0 0 0 0 0 0 0 0 0 0 0 0 0 0 0 0 0 0 0 0 0 0 0 0 0 0 0 0 0 0 0
0 0 0 0 0 0 0 0 0 0 0 0 0 0 0 0 0 0 0 0 0 0 0 0 0 0 0 0 0 0 0 0 0 0 0 0 0 0 0 0 0 0 0
0 0 0 0 0 0 0 0 0 0 0 0 0 0 0 0 0 0 0 0 0 0 0 0 0 0 0 0 0 0 0 0 0 0 0 0 0 0 0 0 0 0 0
0 0 0 0 0 0 0 0 0 0 0 0 0 0 0 0 0 0 0 0 0 0 0 0 0 0 0 0 0 0 0 0 0 0 0 0 0 0 0 0 0 0 0
Wind_Speed
5 3 4 5 5 5 6 6 6 6 5 4 4 4 4 3 3 4 5 7 7 7 7 5 6 6 7 7 7 5 5 4 3 2 2 3 3 4 4 5 5 7 7
4 4 3 3 4 5 5 6 6 6 5 4 4 3 3 3 3 3 4 6 6 7 6 7 6 7 6 6 7 6 4 4 4 4 2 3 4 4 5 4 5 6 5
8 6 4 4 4 4 4 5 5 5 5 4 3 2 1 1 2 3 3 4 5 6 6 7 7 7 7 7 8 8 7 6 5 4 5 4 6 3 3 4 4 4 4
6 5 5 4 4 3 3 3 3 3 3 4 4 5 5 5 4 3 3 3 4 5 5 6 7 7 7 8 8 8 7 7 6 4 4 4 4 4 3 2 2 3 4
7 6 5 4 3 3 3 2 3 2 2 3 4 5 4 4 2 2 2 3 3 3 4 5 5 6 6 7 7 7 8 7 7 6 4 4 3 3 3 4 2 1 2
6 5 4 4 3 3 3 3 3 2 2 2 2 3 4 3 2 2 2 2 2 2 3 4 4 4 5 6 7 7 8 8 7 7 6 5 4 5 6 7 5 4 2
7 6 5 4 3 3 3 3 3 2 2 2 2 2 2 3 3 3 3 2 2 2 3 3 3 4 4 4 5 5 6 7 7 7 6 6 5 3 3 4 4 3 1
7 6 5 5 4 4 3 3 3 2 2 2 2 1 1 1 1 2 2 2 2 2 2 3 3 3 3 3 3 3 3 3 4 5 5 4 3 3 3 3 3 2 2
7 6 5 5 4 4 3 3 3 3 2 2 2 2 2 1 1 0 0 0 1 1 1 1 1 2 2 1 1 1 1 1 1 2 2 2 1 1 1 2 3 4 4
6 6 5 4 4 3 3 4 4 3 3 3 3 3 3 3 2 2 2 2 2 2 1 1 1 1 1 1 1 1 1 2 1 1 2 1 1 1 1 1 0 1 3
6 5 4 4 4 4 4 4 3 4 3 3 4 4 4 4 4 4 4 3 3 3 3 3 3 3 3 3 3 3 3 3 3 3 3 3 3 2 2 2 2 1 1
6 5 5 5 4 4 3 3 3 3 3 3 4 4 4 5 5 5 5 4 5 5 5 4 5 5 5 5 4 4 4 4 4 4 4 4 3 4 3 2 2 2 1
6 5 5 4 4 3 3 3 3 3 3 4 5 5 5 5 5 5 5 5 5 6 6 6 6 6 6 6 6 6 6 6 6 5 5 4 4 4 3 3 3 2 2
6 6 5 4 4 3 3 3 2 3 3 4 5 5 4 4 4 5 5 5 6 6 6 6 6 6 6 6 6 6 7 7 7 6 5 5 4 4 4 3 3 3 3
6 6 6 5 4 4 3 3 3 3 4 4 4 4 4 4 5 5 5 6 6 6 6 6 6 6 5 6 6 6 7 7 7 6 5 5 6 6 4 3 2 3 2
7 7 7 6 6 5 5 4 4 4 4 5 4 4 4 5 5 5 5 6 6 6 6 6 6 6 6 10 11 8 6 6 6 6 5 5 6 7 7 6 5 4 2
7 7 7 7 6 6 6 5 4 4 5 5 4 4 5 5 5 5 6 6 5 6 6 6 6 6 8 11 11 11 6 6 5 4 4 3 4 5 3 5 7 6 5
6 6 6 5 5 5 5 5 5 5 5 5 5 5 5 5 5 5 6 5 4 5 5 5 5 5 7 11 11 11 7 5 5 4 3 3 2 2 3 3 3 3 3
5 5 5 5 5 6 6 6 5 5 5 5 5 5 5 6 5 5 5 4 4 4 4 4 5 5 5 9 9 9 4 4 4 3 3 2 1 1 3 3 1 2 3
4 4 5 5 6 5 6 7 6 5 5 5 5 5 5 6 6 5 4 4 4 4 4 4 4 3 3 6 7 7 3 3 2 2 2 2 1 2 3 1 0 1 3
4 5 5 5 5 6 7 6 6 5 5 5 5 5 5 6 6 5 4 4 4 4 4 4 3 2 2 4 5 6 2 2 1 1 1 2 3 3 3 2 1 3 2
4 4 4 4 4 6 7 6 6 5 6 6 6 6 5 5 5 5 4 4 5 4 3 3 2 1 1 2 3 4 3 3 2 0 1 3 4 4 4 3 4 5 3
4 4 4 5 4 5 6 7 6 6 7 6 6 6 5 5 5 5 5 4 4 3 3 2 2 1 0 1 1 2 2 2 1 1 3 4 4 4 3 5 5 3 1
4 4 5 5 5 5 6 6 7 7 7 7 6 6 6 5 4 4 4 4 4 4 3 3 3 2 1 1 1 0 1 1 1 1 3 4 4 2 3 3 3 1 2
4 5 6 6 6 6 6 6 7 8 8 7 6 5 5 5 4 3 3 4 3 5 5 4 3 3 3 4 5 2 2 2 2 1 0 1 1 2 2 2 2 2 2
3 4 6 6 6 7 7 7 8 8 8 7 6 5 4 4 4 4 2 3 4 6 8 7 6 4 5 5 5 5 4 4 4 1 1 1 2 2 3 3 3 2 2
Wind_Direction
229 206 188 176 167 169 172 179 180 183 174 171 178 184 196 198 198 201 203 203 203 199 198 202 199 197 204 206 201 195 202 210 169 167 274 292 255 234 226 215 210 212 211
219 210 195 172 171 177 175 175 182 183 184 186 183 182 180 195 201 203 207 207 207 207 207 207 207 204 207 210 206 197 195 201 176 167 174 274 297 260 229 215 217 217 207
204 202 192 179 162 170 178 176 178 179 184 182 163 142 137 158 197 213 217 218 214 213 214 215 213 211 209 215 213 205 201 209 205 190 173 190 229 266 277 237 226 213 208
191 183 173 163 156 165 160 159 160 163 175 171 169 175 189 205 214 217 224 234 228 227 224 221 216 216 216 220 218 211 208 202 208 214 220 208 179 192 259 275 242 215 213
177 167 157 148 135 128 121 120 120 126 146 156 173 182 199 215 220 219 226 236 240 238 238 232 225 223 221 223 221 215 212 211 211 203 198 215 217 203 212 255 258 250 228
154 143 134 123 111 100 97 99 106 100 106 133 148 170 189 197 197 217 229 241 244 246 250 247 238 233 228 226 225 222 216 218 218 214 204 193 192 200 207 231 232 228 223
146 143 139 130 120 110 104 100 105 95 86 106 120 153 180 187 201 216 226 236 242 246 256 248 246 243 240 236 229 224 224 222 219 220 220 218 220 197 198 218 224 220 222
144 145 146 142 134 121 107 103 103 93 77 87 89 85 127 172 206 221 223 228 236 242 252 247 248 251 247 239 225 220 224 220 221 224 220 218 223 210 202 200 193 218 236
143 141 138 133 129 122 112 109 105 91 73 77 82 64 55 67 73 52 111 243 277 263 260 248 255 264 259 239 207 199 209 185 195 210 205 209 208 189 203 197 189 202 230
137 135 134 130 121 113 100 90 91 89 74 69 72 74 53 51 58 65 55 43 24 17 27 26 21 9 16 24 90 98 98 107 98 108 116 110 91 82 77 126 156 201 218
150 145 138 126 114 101 94 90 86 81 75 74 72 68 57 56 59 59 49 42 38 38 47 50 56 56 51 51 71 75 78 91 82 78 94 91 85 91 82 81 84 73 140
152 147 138 125 114 107 101 97 92 88 85 85 81 74 67 64 63 56 47 48 49 46 50 56 61 59 54 55 68 73 74 80 80 76 83 84 87 85 79 84 87 85 75
149 142 139 138 136 130 120 109 103 102 94 94 89 78 71 68 66 60 55 55 57 55 53 58 62 60 59 61 64 71 72 74 75 77 85 89 94 87 78 80 81 77 70
163 159 159 158 155 147 139 129 116 111 107 100 94 85 77 75 73 69 64 61 63 65 61 63 65 65 65 65 69 74 75 74 71 70 75 77 85 95 95 85 80 81 79
175 176 174 171 165 155 149 142 131 119 114 107 100 94 86 79 75 72 68 67 68 70 69 71 69 68 70 74 80 79 82 83 79 71 68 72 83 91 94 99 99 95 87
190 184 178 174 174 171 165 152 143 135 123 117 113 106 97 89 83 80 78 76 73 71 71 70 71 69 73 85 88 90 83 83 82 75 63 64 66 75 78 86 89 92 99
189 183 183 184 182 177 166 160 152 137 128 124 119 114 109 101 96 95 89 84 80 77 74 71 73 74 80 85 88 91 87 81 78 75 68 63 62 63 59 63 56 43 41
183 182 178 174 168 161 152 146 142 139 135 132 128 125 122 115 106 102 97 91 87 84 81 77 73 73 80 88 90 91 81 76 71 69 74 77 55 52 83 76 55 30 10
173 171 165 160 155 156 152 144 142 141 142 143 142 141 136 130 123 116 110 102 98 90 84 81 77 75 78 89 94 92 80 76 64 58 66 82 37 17 65 86 55 5 333
137 141 138 139 151 157 149 146 150 150 154 152 148 143 139 136 133 130 121 111 109 104 96 87 80 81 78 95 99 100 93 85 64 41 28 29 12 358 27 109 135 293 287
135 138 141 151 164 158 151 153 156 164 157 144 140 139 138 138 136 130 124 122 116 109 102 95 76 67 82 96 99 104 109 119 109 68 358 319 327 340 336 343 214 267 287
142 146 150 160 161 158 155 159 167 159 146 142 143 142 143 144 140 133 127 125 127 123 121 114 96 36 30 81 99 98 103 119 125 164 274 288 308 321 328 330 301 307 340
171 165 166 166 168 170 166 168 168 155 149 147 149 147 144 141 144 144 143 140 144 147 154 155 159 179 332 342 87 89 79 93 136 245 284 301 313 331 335 319 320 343 5
185 175 172 177 182 180 177 171 162 159 156 157 156 154 151 149 150 152 157 162 168 169 175 179 183 192 216 244 255 315 331 331 317 300 307 327 337 343 324 324 338 333 272
193 185 189 192 191 181 179 172 166 163 163 163 163 162 161 158 156 159 174 177 190 187 183 190 185 186 213 230 220 209 221 230 239 249 341 341 330 325 314 304 294 290 298
197 197 200 197 190 183 184 180 175 170 168 170 173 172 166 162 158 152 148 186 187 200 201 196 192 210 220 226 228 240 254 266 274 260 232 268 275 277 282 288 291 286 281